CW2840 Weather Reports


time (UTC)temp
F
wind
direction
speed
knots
gust
knots
rain 1hr
in
rain 24hr
in
rain mn
in
humidity
%
barometer
mb
20260902143528 81 265 4.3 12.2 0.00 0.33 0.01 84 1015.3
20260902141331 81 275 1.7 13.9 0.00 0.33 0.01 84 1015.1
20260902135831 81 296 2.6 12.2 0.00 0.33 0.01 85 1014.9
20260902134331 81 251 2.6 9.6 0.00 0.33 0.01 85 1015.1
20260902132831 80 272 2.6 9.6 0.00 0.33 0.01 85 1014.9
20260902131330 80 251 3.5 11.3 0.00 0.33 0.01 85 1014.8
20260902125832 80 268 1.7 11.3 0.00 0.33 0.01 85 1014.6
20260902125042 80 255 2.6 11.3 0.00 0.33 0.01 85 1014.2
20260902122831 80 288 3.5 15.6 0.00 0.33 0.01 85 1014.0
20260902121332 80 188 5.2 13.9 0.00 0.33 0.01 85 1013.5
20260902115831 80 238 4.3 13.9 0.00 0.33 0.01 85 1013.2
20260902115023 81 254 6.1 20.9 0.00 0.33 0.01 85 1013.1
20260902112831 81 269 5.2 20.9 0.00 0.33 0.01 84 1012.9
20260902111329 81 240 5.2 17.4 0.00 0.33 0.01 84 1012.8
20260902105827 81 252 4.3 13.9 0.00 0.33 0.01 85 1012.9
20260902104325 80 231 5.2 11.3 0.00 0.33 0.01 85 1012.8
20260902102823 80 237 3.5 11.3 0.00 0.33 0.01 85 1012.9
20260902102011 80 264 1.7 9.6 0.00 0.33 0.01 86 1013.0
20260902095819 79 247 5.2 9.6 0.01 0.32 0.01 85 1013.0
20260902094318 78 261 1.7 9.6 0.01 0.32 0.01 84 1013.1
20260902092815 78 258 5.2 12.2 0.01 0.32 0.01 84 1013.2
20260902091314 79 251 3.5 11.3 0.01 0.32 0.01 83 1013.0
20260902090506 79 207 2.6 11.3 0.00 0.32 0.00 82 1013.0
20260902084309 79 240 2.6 11.3 0.00 0.32 0.00 81 1012.9
20260902082807 79 247 1.7 9.6 0.00 0.32 0.00 81 1013.1
20260902081305 79 243 3.5 9.6 0.00 0.32 0.00 80 1013.0
20260902075804 79 295 3.5 7.8 0.00 0.32 0.00 81 1013.1
20260902075006 79 254 0.9 9.6 0.00 0.32 0.00 81 1013.1
20260902072805 79 248 4.3 9.6 0.00 0.32 0.00 82 1013.2
20260902071302 79 252 5.2 9.6 0.00 0.32 0.00 82 1013.3
20260902065805 79 247 4.3 11.3 0.00 0.32 0.00 82 1013.3
20260902064302 79 238 1.7 12.2 0.00 0.32 0.00 83 1013.3
20260902062804 78 272 5.2 12.2 0.00 0.32 0.00 84 1013.2
20260902061302 78 259 1.7 7.8 0.00 0.32 0.00 85 1013.4
20260902055803 78 262 4.3 11.3 0.00 0.32 0.00 85 1013.2
20260902054302 78 243 4.3 13.9 0.00 0.32 0.00 85 1013.0
20260902052804 78 259 3.5 7.8 0.00 0.32 0.00 86 1012.9
20260902051302 78 200 1.7 11.3 0.00 0.32 0.00 86 1013.2
20260902045804 78 266 3.5 9.6 0.00 0.32 0.32 87 1013.1
20260902045004 78 272 3.5 9.6 0.00 0.32 0.32 87 1013.3
20260902042758 78 252 1.7 9.6 0.00 0.32 0.32 87 1013.2
20260902041256 78 257 2.6 7.8 0.00 0.32 0.32 88 1013.1
20260902035754 78 250 2.6 7.8 0.00 0.32 0.32 88 1013.2
20260902034252 78 306 0.9 2.6 0.00 0.32 0.32 88 1013.3
20260902032752 78 306 1.7 2.6 0.00 0.32 0.32 88 1013.3
20260902031252 78 307 0.9 1.7 0.00 0.32 0.32 89 1013.4
20260902030448 78 307 0.0 1.7 0.00 0.32 0.32 88 1013.3
20260902024248 78 307 0.0 2.6 0.00 0.32 0.32 88 1013.1
20260902023446 78 307 0.9 2.6 0.00 0.32 0.32 88 1012.9
20260902021245 78 305 0.0 1.7 0.00 0.32 0.32 88 1012.7
20260902015745 78 305 0.0 2.6 0.00 0.32 0.32 88 1012.5
20260902014241 78 305 0.9 2.6 0.00 0.32 0.32 88 1012.6
20260902012741 78 305 0.9 2.6 0.00 0.32 0.32 88 1012.4
20260902011237 78 305 0.0 2.6 0.00 0.32 0.32 89 1012.4
20260902005741 78 305 0.0 1.7 0.00 0.32 0.32 89 1012.4
20260902004235 78 305 0.0 1.7 0.00 0.32 0.32 89 1012.5
20260902002736 78 305 0.0 2.6 0.00 0.32 0.32 89 1012.6
20260902001234 78 305 0.0 2.6 0.01 0.32 0.32 89 1012.8
20260901235736 78 305 0.9 1.7 0.06 0.27 0.32 89 1012.7
20260901234234 78 305 0.0 1.7 0.09 0.27 0.32 89 1012.6
20260901233444 78 305 0.0 2.6 0.14 0.27 0.32 88 1012.6
20260901231233 78 358 1.7 2.6 0.16 0.27 0.30 88 1012.9
20260901230429 77 358 0.0 4.3 0.22 0.07 0.26 87 1013.2
20260901224232 78 358 1.7 6.1 0.23 0.07 0.23 87 1013.6
20260901222734 78 351 2.6 6.1 0.18 0.07 0.18 86 1013.9
20260901221231 78 340 2.6 13.9 0.15 0.07 0.15 84 1014.0
20260901215733 81 1 7.8 17.4 0.04 0.00 0.03 78 1014.1
20260901214231 86 51 5.2 12.2 0.00 0.00 0.00 67 1013.8
20260901212730 90 31 2.6 6.1 0.00 0.00 0.00 55 1013.3
20260901211922 90 80 2.6 7.8 0.00 0.00 0.00 53 1013.1
20260901205732 91 0 1.7 11.3 0.00 0.00 0.00 52 1013.1
20260901204231 90 344 4.3 9.6 0.00 0.00 0.00 55 1013.2
20260901203434 90 3 3.5 7.8 0.00 0.00 0.00 58 1013.3
20260901201229 89 326 3.5 7.8 0.00 0.00 0.00 60 1013.6
20260901195731 89 31 2.6 7.8 0.00 0.00 0.00 61 1013.9
20260901194228 89 338 1.7 4.3 0.00 0.00 0.00 62 1014.5
20260901192730 89 8 1.7 6.1 0.00 0.00 0.00 62 1014.6
20260901191226 89 353 1.7 4.3 0.00 0.00 0.00 63 1014.6
20260901185725 88 347 1.7 6.1 0.00 0.00 0.00 62 1014.2
20260901184221 88 358 0.9 6.1 0.00 0.00 0.00 63 1014.4
20260901182723 88 237 2.6 7.8 0.00 0.00 0.00 64 1014.7
20260901181220 88 348 1.7 6.1 0.00 0.00 0.00 64 1014.8
20260901175721 87 337 1.7 4.3 0.00 0.00 0.00 65 1015.0
20260901174219 87 4 2.6 4.3 0.00 0.00 0.00 65 1015.5
20260901172721 87 317 0.9 4.3 0.00 0.00 0.00 65 1015.7
20260901171915 86 313 2.6 6.1 0.00 0.00 0.00 66 1016.0
20260901165721 86 345 1.7 4.3 0.00 0.00 0.00 65 1016.0
20260901164218 86 0 2.6 9.6 0.00 0.00 0.00 64 1016.1
20260901162719 87 274 2.6 9.6 0.00 0.00 0.00 65 1016.2
20260901161218 87 353 4.3 12.2 0.00 0.00 0.00 65 1016.1
20260901160421 86 320 2.6 9.6 0.00 0.00 0.00 66 1016.0
20260901154217 86 347 4.3 9.6 0.00 0.00 0.00 67 1016.0
20260901152718 85 357 1.7 7.8 0.00 0.00 0.00 70 1016.0
20260901151216 85 0 0.9 7.8 0.00 0.00 0.00 70 1016.2
20260901145717 85 347 3.5 7.8 0.00 0.00 0.00 72 1016.2
20260901144215 85 0 1.7 6.1 0.00 0.00 0.00 72 1016.2